Location: Forst
(46.9333°N, 15.4333°E)
Time: 20:34:04
(UTC+00:00)

USA 267 - Pass Details

Date: 01 December 2020
Orbit: 1100 x 1107 km, 123.0° (Epoch: 18 January)

Event Time Altitude Azimuth Distance (km) Brightness Sun altitude
Exits shadow 15:46:42 - 74° (ENE) 3,277 5.1 -6.1°
Reaches altitude 10° 15:47:35 10° 71° (ENE) 2,963 4.9 -6.3°
Maximum altitude 15:53:29 38° 7° (N) 1,625 4.0 -7.2°
Drops below altitude 10° 15:59:24 10° 302° (WNW) 2,969 6.0 -8.1°
Sets 16:02:04 0° 295° (WNW) 3,929 6.8 -8.5°
